Terminal Aerodrome Forecast
Issued by NWS State College, PA

Home | Current Version | Previous Version | Text Only | Print | Product List | Glossary On
Versions: 1 2 3 4 5 6 7 8 9 10 11 12 13 14 15 16 17 18 19 20 21 22 23 24 25 26 27 28 29 30 31 32 33 34 35 36 37 38 39 40 41 42 43 44 45 46 47 48 49 50
509
FTUS41 KCTP 111739
TAFMDT
TAF
KMDT 111739Z 1118/1218 29018G27KT P6SM SCT030 BKN050
      TEMPO 1120/1123 4SM -SHSN BKN035 OVC045
     FM120000 30011KT P6SM FEW045=

USA.gov is the U.S. government's official web portal to all federal, state and local government web resources and services.